Gulfport, MS

9:52 PM CDT on July 27, 2017 (GMT -0500)
Gulfport-Biloxi Regional

Weather History for KGPT - September, 2014

Change the Weather History Date:

Thursday, September 4, 2014

  Actual Average Record
Temperature  
Mean Temperature 82 °F -  
Max Temperature 90 °F 88 °F 97 °F (2000)
Min Temperature 75 °F 71 °F 59 °F (1952)
Cooling Degree Days 17    
Growing Degree Days 32 (Base 50)    
Moisture  
Dew Point 73 °F    
Average Humidity 76    
Maximum Humidity 94    
Minimum Humidity 55    
Precipitation  
Precipitation 0.00 in - - ()
Sea Level Pressure  
Sea Level Pressure 30.05 in    
Wind  
Wind Speed 3 mph (ENE)    
Max Wind Speed 9 mph    
Max Gust Speed -    
Visibility 10 miles    
Events      
Averages and records for this station are not official NWS values.
T = Trace of Precipitation, MM = Missing Value Source: NWS Daily Summary

Daily Weather History Graph

Daily Weather History Graph

Search for Another Location

Airport or City:

Trip Planner

Search our weather history database for the weather conditions in past years. The results will help you decide how hot, cold, wet, or windy it might be!

Date:

Astronomy

Sep. 04, 2014 Rise Set
Actual Time 6:34 AM CDT 7:15 PM CDT
Civil Twilight 6:10 AM CDT 7:39 PM CDT
Nautical Twilight 5:41 AM CDT 8:08 PM CDT
Astronomical Twilight 5:12 AM CDT 8:37 PM CDT
Moon 3:40 PM CDT (9/4) 1:38 AM CDT (9/4)
Length of Visible Light 13h 29m
Length of Day
12h 40m
Waxing Gibbous, 74% of the Moon is Illuminated
Sep 4
Waxing Gibbous
Sep 8
Full
Sep 15
Last Quarter
Sep 24
New
Oct 1
First Quarter

Hourly Weather History & Observations

Time (CDT) Temp. Heat Index Dew Point Humidity Pressure Visibility Wind Dir Wind Speed Gust Speed Precip Events Conditions
12:53 AM 77.0 °F - 73.9 °F 90% 30.02 in 9.0 mi Calm Calm - N/A   Clear
1:53 AM 75.9 °F - 73.0 °F 91% 30.01 in 7.0 mi Calm Calm - N/A   Clear
2:53 AM 75.0 °F - 73.0 °F 94% 30.01 in 8.0 mi North 3.5 mph - N/A   Clear
3:53 AM 75.9 °F - 73.9 °F 94% 30.01 in 8.0 mi Calm Calm - N/A   Clear
4:53 AM 75.0 °F - 73.0 °F 94% 30.02 in 7.0 mi NW 3.5 mph - N/A   Clear
5:53 AM 77.0 °F - 73.0 °F 88% 30.04 in 10.0 mi Calm Calm - N/A   Partly Cloudy
6:53 AM 75.9 °F - 73.0 °F 91% 30.05 in 10.0 mi NNE 3.5 mph - N/A   Mostly Cloudy
7:53 AM 79.0 °F - 73.0 °F 82% 30.05 in 10.0 mi Calm Calm - N/A   Clear
8:53 AM 82.9 °F 88.0 °F 72.0 °F 69% 30.06 in 10.0 mi ENE 3.5 mph - N/A   Clear
9:53 AM 84.9 °F 90.7 °F 72.0 °F 65% 30.08 in 10.0 mi East 5.8 mph - N/A   Clear
10:53 AM 87.1 °F 94.5 °F 73.0 °F 63% 30.09 in 10.0 mi ENE 4.6 mph - N/A   Clear
11:53 AM 88.0 °F 95.6 °F 73.0 °F 61% 30.07 in 10.0 mi Variable 4.6 mph - N/A   Clear
12:53 PM 89.1 °F 97.0 °F 73.0 °F 59% 30.06 in 10.0 mi SSE 8.1 mph - N/A   Scattered Clouds
1:53 PM 89.1 °F 99.1 °F 75.0 °F 63% 30.05 in 10.0 mi SSE 9.2 mph - N/A   Scattered Clouds
2:53 PM 88.0 °F 92.9 °F 70.0 °F 55% 30.04 in 10.0 mi NW 5.8 mph - N/A   Partly Cloudy
3:53 PM 89.1 °F 96.0 °F 72.0 °F 57% 30.02 in 10.0 mi SE 6.9 mph - N/A   Partly Cloudy
4:53 PM 88.0 °F 92.9 °F 70.0 °F 55% 30.03 in 10.0 mi SE 8.1 mph - N/A   Clear
5:53 PM 86.0 °F 93.0 °F 73.0 °F 65% 30.04 in 10.0 mi SSE 8.1 mph - N/A   Scattered Clouds
6:53 PM 84.0 °F 91.2 °F 73.9 °F 72% 30.04 in 10.0 mi SSE 3.5 mph - N/A   Partly Cloudy
7:53 PM 80.1 °F 84.5 °F 73.9 °F 81% 30.05 in 10.0 mi NW 5.8 mph - N/A   Partly Cloudy
8:53 PM 80.1 °F 84.2 °F 73.0 °F 79% 30.06 in 10.0 mi East 3.5 mph - N/A   Clear
9:53 PM 78.1 °F - 73.9 °F 87% 30.08 in 10.0 mi NNW 5.8 mph - N/A   Clear
10:53 PM 77.0 °F - 73.9 °F 90% 30.08 in 10.0 mi North 4.6 mph - N/A   Clear
11:53 PM 77.0 °F - 73.9 °F 90% 30.07 in 10.0 mi NNE 3.5 mph - N/A   Clear